カタログに戻る

STARLINK-30104

運用中通信VLEO
NORAD 56300·PAYLOAD·🇺🇸 United States

打ち上げ Apr 19, 2023 から Cape Canaveral Space Force Station

Loading…

次のパス (今後24時間)

TLE

最新Source: CelesTrak SupGP

元期: Sep 14, 2026, 21:28 UTC

1 56300C 23056Q   26257.89493056  .00031485  00000+0  11405-2 0  2576
2 56300  43.0028 220.5587 0001267 262.8675 130.5629 15.27560452    18

AllMySatでSTARLINK-30104をリアルタイム追跡

Download on the App Store